Data for 08/20/2017

Time Sea-Level Adjusted Pressure Absolute Pressure Temperature Relative Humidity Dew Point   
(mb) (inHg) (mb) (inHg) (C) (F) (%) (C) (F)
00:05 1020 30.12 850 25.1 18.3 64.9 31 1.2 34.1
00:10 1020 30.12 850 25.1 18.1 64.6 31 1 33.7
00:15 1020 30.12 850 25.1 18 64.4 31 0.8 33.5
00:20 1020 30.12 850 25.1 17.9 64.3 31 0.9 33.6
00:25 1020 30.12 850 25.1 17.8 64 32 0.9 33.6
00:30 1020 30.12 850 25.1 17.7 63.9 32 0.8 33.5
00:35 1020 30.12 850 25.1 17.7 63.9 32 0.8 33.4
00:40 1020 30.12 850 25.1 17.7 63.8 32 0.8 33.4
00:45 1020 30.12 850 25.1 17.6 63.6 32 0.9 33.6
00:50 1020 30.12 850 25.1 17.5 63.4 32 0.8 33.5
00:55 1020 30.12 850 25.1 17.4 63.3 33 0.9 33.7
01:00 1020 30.12 850 25.1 17.4 63.2 33 0.9 33.6
01:05 1020 30.12 850 25.1 17.2 63 33 1 33.8
01:10 1020 30.12 850 25.1 17.1 62.8 33 1 33.7
01:15 1020 30.12 850 25.1 17.1 62.7 33 1 33.8
01:20 1020 30.12 850 25.1 17 62.6 34 1 33.9
01:25 1021 30.15 850 25.1 16.9 62.4 34 1.1 34
01:30 1021 30.15 850 25.1 16.8 62.3 34 1.1 34.1
01:35 1020 30.12 850 25.1 16.6 61.9 35 1.3 34.3
01:40 1020 30.12 850 25.1 16.6 61.8 35 1.2 34.1
01:45 1020 30.12 850 25.1 16.5 61.6 36 1.4 34.5
01:50 1020 30.12 850 25.1 16.4 61.5 36 1.4 34.5
01:55 1020 30.12 850 25.1 16.3 61.3 37 1.5 34.7
02:00 1020 30.12 850 25.1 16.2 61.1 37 1.5 34.7
02:05 1020 30.12 850 25.1 16 60.9 37 1.5 34.8
02:10 1020 30.12 850 25.1 15.9 60.6 38 1.6 34.8
02:15 1020 30.12 850 25.1 15.9 60.6 37 1.5 34.7
02:20 1020 30.12 850 25.1 15.9 60.7 37 1.5 34.8
02:25 1020 30.12 850 25.1 15.9 60.6 37 1.5 34.6
02:30 1020 30.12 850 25.1 15.8 60.4 39 1.8 35.2
02:35 1020 30.12 850 25.1 15.5 59.8 40 1.9 35.3
02:40 1021 30.15 850 25.1 15.2 59.4 40 1.9 35.5
02:45 1021 30.15 850 25.1 14.9 58.9 41 2 35.6
02:50 1021 30.15 850 25.1 14.4 57.8 45 2.7 36.8
02:55 1021 30.15 850 25.1 13.8 56.8 45 2.1 35.7
03:00 1021 30.15 850 25.1 13.9 56.9 45 2.2 35.9
03:05 1021 30.15 850 25.1 13.8 56.8 46 2.3 36.2
03:10 1021 30.15 850 25.1 13.6 56.4 46 2.4 36.3
03:15 1021 30.15 850 25.1 13.3 55.9 48 2.6 36.7
03:20 1021 30.15 850 25.1 13 55.4 48 2.2 36
03:25 1021 30.15 850 25.1 13 55.5 48 2.4 36.3
03:30 1021 30.15 850 25.1 12.8 55.1 49 2.4 36.3
03:35 1021 30.15 850 25.1 12.6 54.7 50 2.5 36.6
03:40 1021 30.15 850 25.1 12.5 54.5 49 2.1 35.9
03:45 1021 30.15 850 25.1 12.7 54.9 48 2.2 35.9
03:50 1021 30.15 850 25.1 12.8 55.1 48 2.2 36
03:55 1021 30.15 850 25.1 12.7 54.8 50 2.6 36.7
04:00 1021 30.15 850 25.1 12.4 54.3 51 2.6 36.6
04:05 1021 30.15 850 25.1 12.2 54 51 2.4 36.3
04:10 1021 30.15 850 25.1 12.2 53.9 51 2.3 36.1
04:15 1021 30.15 850 25.1 12.2 54 50 2.3 36.1
04:20 1021 30.15 850 25.1 12.4 54.2 50 2.4 36.2
04:25 1021 30.15 850 25.1 12.4 54.2 51 2.4 36.4
04:30 1021 30.15 850 25.1 12.1 53.8 52 2.5 36.6
04:35 1021 30.15 850 25.1 11.7 53.1 52 2.2 36
04:40 1021 30.15 850 25.1 11.7 53 52 2.3 36.1
04:45 1021 30.15 850 25.1 11.6 52.8 53 2.5 36.5
04:50 1021 30.15 850 25.1 11.3 52.4 54 2.4 36.3
04:55 1021 30.15 850 25.1 11.1 52 56 2.7 36.8
05:00 1021 30.15 850 25.1 10.9 51.5 56 2.5 36.5
05:05 1021 30.15 850 25.1 10.8 51.4 56 2.3 36.1
05:10 1021 30.15 850 25.1 10.9 51.7 56 2.5 36.5
05:15 1021 30.15 850 25.1 10.9 51.5 56 2.5 36.6
05:20 1021 30.15 850 25.1 11 51.8 55 2.3 36.2
05:25 1021 30.15 850 25.1 11 51.7 57 2.7 36.8
05:30 1021 30.15 850 25.1 10.8 51.4 55 2.2 36
05:35 1021 30.15 850 25.1 11 51.7 55 2.2 36
05:40 1021 30.15 850 25.1 11 51.7 56 2.5 36.6
05:45 1021 30.15 850 25.1 10.9 51.6 55 2.2 35.9
05:50 1021 30.15 851 25.13 11 51.8 55 2.4 36.4
05:55 1021 30.15 851 25.13 11 51.7 55 2.2 36
06:00 1021 30.15 851 25.13 11.1 52 55 2.4 36.3
06:05 1021 30.15 851 25.13 11 51.8 54 2.2 35.9
06:10 1021 30.15 851 25.13 11 51.7 56 2.6 36.7
06:15 1021 30.15 851 25.13 10.8 51.4 56 2.4 36.3
06:20 1022 30.18 851 25.13 11 51.7 55 2.4 36.3
06:25 1022 30.18 851 25.13 10.9 51.7 56 2.5 36.6
06:30 1022 30.18 851 25.13 10.8 51.4 58 2.8 37.1
06:35 1022 30.18 851 25.13 10.6 51 58 2.6 36.8
06:40 1022 30.18 851 25.13 10.7 51.2 57 2.5 36.5
06:45 1022 30.18 851 25.13 10.9 51.7 56 2.6 36.7
06:50 1022 30.18 851 25.13 11.1 52 55 2.5 36.5
06:55 1022 30.18 851 25.13 11.3 52.3 55 2.6 36.7
07:00 1022 30.18 851 25.13 11.7 53 53 2.6 36.7
07:05 1022 30.18 851 25.13 12 53.5 53 2.7 36.9
07:10 1022 30.18 851 25.13 12.4 54.3 51 2.7 36.9
07:15 1022 30.18 851 25.13 12.9 55.2 49 2.5 36.6
07:20 1022 30.18 851 25.13 13.3 56 50 3.1 37.6
07:25 1022 30.18 851 25.13 13.5 56.4 48 2.7 36.9
07:30 1022 30.18 851 25.13 13.7 56.7 47 2.7 36.9
07:35 1022 30.18 851 25.13 14 57.2 45 2.5 36.5
07:40 1022 30.18 851 25.13 14.2 57.5 45 2.6 36.7
07:45 1022 30.18 851 25.13 14.9 58.7 43 2.5 36.5
07:50 1022 30.18 851 25.13 15.6 60 42 2.9 37.2
07:55 1022 30.18 851 25.13 16.1 60.9 40 2.6 36.7
08:00 1022 30.18 851 25.13 16.5 61.6 40 2.9 37.3
08:05 1022 30.18 851 25.13 16.8 62.2 39 2.8 37.1
08:10 1022 30.18 851 25.13 17.1 62.7 37 2.2 36
08:15 1022 30.18 851 25.13 17.1 62.8 36 2 35.5
08:20 1022 30.18 851 25.13 17.3 63.2 35 1.7 35.1
08:25 1022 30.18 851 25.13 17.3 63.2 36 2.3 36.1
08:30 1022 30.18 851 25.13 17 62.5 37 2.3 36.1
08:35 1022 30.18 851 25.13 17.1 62.7 35 1.7 35.1
08:40 1022 30.18 851 25.13 16.6 61.8 35 1 33.8
08:45 1022 30.18 851 25.13 16.8 62.2 35 1.2 34.2
08:50 1022 30.18 851 25.13 17.3 63.1 34 1.2 34.2
08:55 1022 30.18 851 25.13 17.4 63.3 33 1.3 34.3
09:00 1022 30.18 851 25.13 17.4 63.3 34 1.4 34.5
09:05 1022 30.18 851 25.13 18 64.4 33 1.7 35.1
09:10 1022 30.18 851 25.13 18.3 65 32 1.7 35
09:15 1022 30.18 851 25.13 18.8 65.8 31 1.5 34.8
09:20 1022 30.18 851 25.13 18.8 65.8 33 2.2 35.9
09:25 1022 30.18 851 25.13 18.1 64.6 32 1.4 34.5
09:30 1022 30.18 851 25.13 18.9 65.9 31 1.6 34.9
09:35 1022 30.18 851 25.13 19.4 66.8 30 1.7 35.1
09:40 1022 30.18 851 25.13 19.3 66.7 32 2.1 35.8
09:45 1022 30.18 851 25.13 19.7 67.4 30 1.6 34.9
09:50 1022 30.18 851 25.13 19.6 67.2 31 2.1 35.7
09:55 1022 30.18 851 25.13 19.8 67.7 31 2.3 36.2
10:00 1022 30.18 851 25.13 19.8 67.6 30 2 35.5
10:05 1022 30.18 851 25.13 20 68.1 30 2 35.6
10:10 1022 30.18 851 25.13 20.2 68.4 31 2.7 36.9
10:15 1022 30.18 851 25.13 20.7 69.2 29 2.4 36.3
10:20 1022 30.18 851 25.13 20.5 68.9 30 2.3 36.2
10:25 1022 30.18 851 25.13 20.4 68.7 29 1.8 35.3
10:30 1022 30.18 851 25.13 20.4 68.6 29 1.9 35.5
10:35 1022 30.18 851 25.13 20.4 68.7 29 1.9 35.5
10:40 1022 30.18 851 25.13 21 69.9 28 2 35.6
10:45 1022 30.18 851 25.13 21 69.8 28 1.9 35.4
10:50 1022 30.18 851 25.13 21.1 70 26 1.2 34.2
10:55 1022 30.18 851 25.13 21.2 70.1 27 1.6 34.8
11:00 1021 30.15 851 25.13 21.1 69.9 26 0.8 33.5
11:05 1021 30.15 851 25.13 21.4 70.5 26 1.3 34.3
11:10 1021 30.15 851 25.13 21.2 70.2 27 1.6 34.9
11:15 1021 30.15 851 25.13 21.4 70.6 26 1.4 34.4
11:20 1021 30.15 851 25.13 21.8 71.2 25 1 33.9
11:25 1021 30.15 851 25.13 21.4 70.5 26 1.5 34.7
11:30 1021 30.15 851 25.13 21.1 70 26 1 33.8
11:35 1021 30.15 850 25.1 21.8 71.2 24 0.7 33.2
11:40 1021 30.15 850 25.1 22.1 71.8 25 1.5 34.6
11:45 1021 30.15 850 25.1 22.2 71.9 24 1 33.8
11:50 1021 30.15 850 25.1 22.3 72.1 24 1.2 34.2
11:55 1021 30.15 850 25.1 22.1 71.7 26 2 35.7
12:00 1021 30.15 850 25.1 22.1 71.8 25 1.5 34.7
12:05 1021 30.15 850 25.1 22.2 72 26 2.2 36
12:10 1021 30.15 850 25.1 21.8 71.3 26 1.7 35.1
12:15 1021 30.15 850 25.1 21.5 70.8 27 1.8 35.2
12:20 1021 30.15 850 25.1 21.5 70.7 27 1.8 35.3
12:25 1021 30.15 850 25.1 21.3 70.4 26 1.1 33.9
12:30 1021 30.15 850 25.1 21.8 71.2 25 0.9 33.7
12:35 1021 30.15 850 25.1 22.1 71.8 26 1.6 34.9
12:40 1021 30.15 850 25.1 22.5 72.5 25 1.9 35.4
12:45 1021 30.15 850 25.1 21.3 70.4 26 1.3 34.4
12:50 1021 30.15 850 25.1 21.7 71 26 1.4 34.5
12:55 1021 30.15 850 25.1 21.6 70.9 27 1.9 35.4
13:00 1021 30.15 850 25.1 21.7 71 25 1 33.9
13:05 1021 30.15 850 25.1 22.4 72.4 25 1.6 34.8
13:10 1021 30.15 850 25.1 23.4 74.1 23 1 33.9
13:15 1020 30.12 850 25.1 24 75.1 23 1.8 35.2
13:20 1020 30.12 850 25.1 23.9 74.9 22 1 33.9
13:25 1020 30.12 850 25.1 23.8 74.8 22 1 33.7
13:30 1020 30.12 850 25.1 24.2 75.5 23 2 35.6
13:35 1020 30.12 850 25.1 24 75.3 22 1 33.7
13:40 1020 30.12 850 25.1 23.9 75 22 0.9 33.6
13:45 1020 30.12 850 25.1 23.7 74.6 23 1.8 35.3
13:50 1020 30.12 850 25.1 23.5 74.2 22 0.8 33.4
13:55 1020 30.12 850 25.1 23.8 74.9 22 1.1 33.9
14:00 1020 30.12 850 25.1 24.1 75.4 21 0.7 33.2
14:05 1020 30.12 849 25.07 24.3 75.8 20 0.4 32.7
14:10 1020 30.12 849 25.07 24.6 76.2 20 0.1 32.1
14:15 1020 30.12 849 25.07 24.4 75.9 20 0.5 32.8
14:20 1020 30.12 849 25.07 24.9 76.7 20 0.3 32.6
14:25 1020 30.12 849 25.07 24.5 76.1 18 -0.8 30.6
14:30 1020 30.12 849 25.07 24.2 75.6 19 -0.6 30.9
14:35 1020 30.12 849 25.07 24.7 76.5 18 -1 30.2
14:40 1020 30.12 849 25.07 24.3 75.7 20 -0 32
14:45 1020 30.12 849 25.07 24.6 76.3 17 -1.8 28.8
14:50 1020 30.12 849 25.07 24.9 76.9 17 -1.2 29.8
14:55 1020 30.12 849 25.07 25.2 77.3 17 -1.5 29.3
15:00 1020 30.12 849 25.07 25 77.1 18 -0.6 31
15:05 1020 30.12 849 25.07 25.4 77.7 15 -2.8 26.9
15:10 1020 30.12 849 25.07 25.9 78.5 15 -2.2 28.1
15:15 1020 30.12 849 25.07 26 78.9 15 -2.2 28.1
15:20 1020 30.12 849 25.07 25.4 77.8 16 -2.2 28
15:25 1020 30.12 849 25.07 24.8 76.7 16 -2.1 28.1
15:30 1019 30.09 849 25.07 24.3 75.7 17 -2.1 28.2
15:35 1019 30.09 849 25.07 23.4 74.2 17 -2.5 27.5
15:40 1019 30.09 849 25.07 23.4 74.1 17 -2.7 27.2
15:45 1019 30.09 849 25.07 23.9 75 15 -3.7 25.4
15:50 1019 30.09 849 25.07 23.9 75 18 -1.7 28.9
15:55 1019 30.09 849 25.07 24 75.2 18 -1.6 29.1
16:00 1019 30.09 849 25.07 23.5 74.3 17 -2.6 27.3
16:05 1019 30.09 849 25.07 23.3 73.9 15 -4.7 23.5
16:10 1019 30.09 849 25.07 23.2 73.7 17 -2.8 27
16:15 1019 30.09 849 25.07 23.2 73.7 16 -4.3 24.3
16:20 1019 30.09 849 25.07 23.6 74.4 15 -4.7 23.6
16:25 1019 30.09 849 25.07 23.6 74.5 15 -4.4 24.1
16:30 1019 30.09 849 25.07 24.2 75.6 15 -3.5 25.7
16:35 1019 30.09 849 25.07 25 76.9 13 -4.8 23.4
16:40 1019 30.09 849 25.07 25 76.9 13 -4.7 23.5
16:45 1019 30.09 849 25.07 24.9 76.8 14 -4.6 23.7
16:50 1019 30.09 848 25.04 24.4 75.8 15 -4 24.8
16:55 1019 30.09 848 25.04 24.4 75.9 13 -5.3 22.5
17:00 1019 30.09 848 25.04 24.7 76.5 14 -4.3 24.3
17:05 1019 30.09 848 25.04 24.2 75.6 14 -5 23
17:10 1019 30.09 848 25.04 24.1 75.3 13 -5.7 21.7
17:15 1019 30.09 848 25.04 24.1 75.3 13 -5.5 22.2
17:20 1019 30.09 848 25.04 23.9 74.9 13 -5.6 21.9
17:25 1019 30.09 848 25.04 23.9 75.1 14 -5.3 22.4
17:30 1019 30.09 848 25.04 23.9 75 13 -6.2 20.8
17:35 1019 30.09 848 25.04 23.6 74.4 14 -4.9 23.2
17:40 1019 30.09 848 25.04 23.6 74.4 14 -5.3 22.5
17:45 1019 30.09 848 25.04 23.5 74.4 15 -4.3 24.2
17:50 1019 30.09 848 25.04 23.6 74.5 14 -5 23
17:55 1019 30.09 848 25.04 23.5 74.3 13 -6.4 20.5
18:00 1019 30.09 848 25.04 23.5 74.3 13 -6.7 19.9
18:05 1019 30.09 848 25.04 23.5 74.2 15 -4.3 24.2
18:10 1019 30.09 848 25.04 23.4 74.2 17 -2.7 27.2
18:15 1019 30.09 848 25.04 23.3 73.9 20 -0.5 31.1
18:20 1019 30.09 848 25.04 22.9 73.2 22 0.4 32.6
18:25 1019 30.09 848 25.04 22.5 72.6 22 -0.2 31.7
18:30 1019 30.09 848 25.04 22.4 72.3 21 -1 30.1
18:35 1019 30.09 849 25.07 22.3 72.1 23 0.2 32.4
18:40 1019 30.09 849 25.07 22.3 72.2 25 1.3 34.3
18:45 1019 30.09 849 25.07 22.4 72.3 23 0.7 33.2
18:50 1019 30.09 849 25.07 22.2 71.9 24 0.9 33.5
18:55 1019 30.09 849 25.07 21.8 71.3 27 2.4 36.3
19:00 1019 30.09 849 25.07 21.6 70.9 28 2.4 36.3
19:05 1019 30.09 849 25.07 21.4 70.6 29 3.1 37.5
19:10 1019 30.09 849 25.07 21 69.9 29 2.5 36.5
19:15 1019 30.09 849 25.07 20.8 69.4 29 2.4 36.3
19:20 1020 30.12 849 25.07 20.5 69 30 2.6 36.7
19:25 1020 30.12 849 25.07 20.2 68.4 32 3 37.3
19:30 1020 30.12 849 25.07 19.9 67.7 32 3 37.4
19:35 1020 30.12 849 25.07 19.7 67.4 31 2.4 36.4
19:40 1020 30.12 849 25.07 19.4 66.9 32 2.3 36.2
19:45 1020 30.12 849 25.07 19.1 66.4 32 2.2 36
19:50 1020 30.12 849 25.07 18.9 65.9 32 2.1 35.9
19:55 1020 30.12 849 25.07 18.5 65.3 32 1.4 34.6
20:00 1020 30.12 849 25.07 18.2 64.8 32 1.2 34.2
20:05 1020 30.12 849 25.07 18 64.5 38 3.5 38.4
20:10 1020 30.12 849 25.07 17.5 63.5 36 2.3 36.1
20:15 1020 30.12 849 25.07 17.3 63.1 33 1.2 34.1
20:20 1020 30.12 849 25.07 17.3 63.2 31 0.2 32.3
20:25 1020 30.12 850 25.1 17.3 63.1 35 1.7 35.1
20:30 1020 30.12 850 25.1 17.1 62.7 32 0.5 33
20:35 1020 30.12 850 25.1 17.3 63.2 31 0.1 32.2
20:40 1020 30.12 850 25.1 17.3 63.1 29 -0.8 30.6
20:45 1020 30.12 850 25.1 17.2 63 29 -0.7 30.8
20:50 1021 30.15 850 25.1 17.2 62.9 32 0.5 33
20:55 1021 30.15 850 25.1 17.2 62.9 32 0.4 32.8
21:00 1021 30.15 850 25.1 17.2 62.9 32 0.4 32.6
21:05 1021 30.15 850 25.1 17.1 62.8 32 0.4 32.7
21:10 1021 30.15 850 25.1 17.3 63.1 31 0 32.1
21:15 1021 30.15 850 25.1 17 62.6 32 0.4 32.7
21:20 1021 30.15 850 25.1 17 62.6 28 -1.5 29.3
21:25 1021 30.15 850 25.1 17.4 63.2 32 0.6 33
21:30 1021 30.15 850 25.1 16.8 62.2 33 0.4 32.7
21:35 1021 30.15 850 25.1 16.5 61.7 32 -0.3 31.4
21:40 1021 30.15 850 25.1 16.3 61.4 34 0.3 32.6
21:45 1021 30.15 850 25.1 15.8 60.5 36 0.9 33.6
21:50 1021 30.15 850 25.1 15.4 59.7 37 0.8 33.5
21:55 1021 30.15 851 25.13 15.2 59.4 37 0.6 33.2
22:00 1021 30.15 851 25.13 15.4 59.7 35 0 32
22:05 1021 30.15 851 25.13 15.8 60.4 33 -0.3 31.4
22:10 1021 30.15 851 25.13 16.1 60.9 33 0.1 32.2
22:15 1021 30.15 851 25.13 15.8 60.5 36 0.9 33.5
22:20 1022 30.18 851 25.13 15.5 59.8 37 0.9 33.5
22:25 1022 30.18 851 25.13 15.3 59.5 38 1 33.9
22:30 1022 30.18 851 25.13 15.1 59.2 37 0.7 33.2
22:35 1022 30.18 851 25.13 15.3 59.5 36 0.3 32.5
22:40 1022 30.18 851 25.13 15.4 59.8 34 -0.2 31.7
22:45 1022 30.18 851 25.13 15.6 60 34 0 32.1
22:50 1022 30.18 851 25.13 15.5 59.9 36 0.5 33
22:55 1022 30.18 851 25.13 15.1 59.2 38 1 33.8
23:00 1022 30.18 851 25.13 14.9 58.8 36 0.2 32.3
23:05 1022 30.18 851 25.13 14.8 58.7 37 0.4 32.7
23:10 1022 30.18 851 25.13 14.8 58.7 39 1 33.8
23:15 1022 30.18 851 25.13 14.4 58 39 0.7 33.3
23:20 1022 30.18 851 25.13 14.3 57.7 38 0.3 32.5
23:25 1022 30.18 851 25.13 14.4 57.9 38 0.2 32.4
23:30 1022 30.18 851 25.13 14.4 57.9 37 0.2 32.3
23:35 1022 30.18 851 25.13 14.4 57.9 37 -0.2 31.7
23:40 1022 30.18 851 25.13 14.4 58 35 -0.6 31
23:45 1022 30.18 851 25.13 14.5 58.2 35 -0.6 30.9
23:50 1022 30.18 851 25.13 14.5 58.2 35 -0.6 30.9
23:55 1022 30.18 851 25.13 14.6 58.3 34 -1 30.2
24:00 1022 30.18 851 25.13 14.7 58.5 34 -0.9 30.4